Beaufort, NC

1:02 PM EST on February 23, 2017 (GMT -0500)
Piney Island

Weather History for KNBT - June, 2013

Change the Weather History Date:

Thursday, June 13, 2013

  Actual Average (KMRH) Record (KMRH)
Temperature  
Mean Temperature 84 °F -  
Max Temperature 93 °F 83 °F 93 °F (1964)
Min Temperature 72 °F 66 °F 56 °F (1979)
Cooling Degree Days 19    
Growing Degree Days 34 (Base 50)    
Moisture  
Dew Point 74 °F    
Average Humidity 78    
Maximum Humidity 94    
Minimum Humidity 54    
Precipitation  
Precipitation 0.17 in - - ()
Sea Level Pressure  
Sea Level Pressure 29.78 in    
Wind  
Wind Speed 13 mph (SW)    
Max Wind Speed 30 mph    
Max Gust Speed 43 mph    
Visibility 7 miles    
Events Rain    
Averages and records for this station are not official NWS values.
T = Trace of Precipitation, MM = Missing Value Source: NWS Daily Summary

Daily Weather History Graph

Daily Weather History Graph

Search for Another Location

Airport or City:

Trip Planner

Search our weather history database for the weather conditions in past years. The results will help you decide how hot, cold, wet, or windy it might be!

Date:

Astronomy

Jun. 13, 2013 Rise Set
Actual Time 5:51 AM EDT 8:20 PM EDT
Civil Twilight 5:21 AM EDT 8:50 PM EDT
Nautical Twilight 4:44 AM EDT 9:27 PM EDT
Astronomical Twilight 4:04 AM EDT 10:07 PM EDT
Moon 10:17 AM EDT (6/13) 11:36 PM EDT (6/13)
Length of Visible Light 15h 28m
Length of Day
14h 29m
Waxing Crescent, 21% of the Moon is Illuminated
Jun 13
Waxing Crescent
Jun 16
First Quarter
Jun 23
Full
Jun 30
Last Quarter
Jul 8
New

Hourly Weather History & Observations

Time (EDT) Temp. Heat Index Dew Point Humidity Pressure Visibility Wind Dir Wind Speed Gust Speed Precip Events Conditions
12:56 AM 79.0 °F - 77.0 °F 94% 29.90 in 5.0 mi SSW 6.9 mph - N/A   Clear
1:56 AM 79.0 °F - 75.9 °F 90% 29.89 in 5.0 mi SSW 5.8 mph - N/A   Clear
2:56 AM 79.0 °F - 77.0 °F 94% 29.87 in 5.0 mi SSW 6.9 mph - N/A   Clear
3:56 AM 79.0 °F - 77.0 °F 94% 29.87 in 4.0 mi SSW 5.8 mph - N/A   Clear
4:56 AM 79.0 °F - 77.0 °F 94% 29.86 in 5.0 mi SSW 6.9 mph - 0.00 in   Clear
5:56 AM 79.0 °F - 77.0 °F 94% 29.85 in 5.0 mi SSW 8.1 mph - N/A   Clear
7:56 AM 82.9 °F 93.8 °F 79.0 °F 88% 29.83 in 5.0 mi SSW 11.5 mph - N/A   Clear
8:56 AM 86.0 °F 98.3 °F 78.1 °F 77% 29.82 in 7.0 mi SSW 12.7 mph - N/A   Clear
9:56 AM 89.1 °F 103.2 °F 78.1 °F 70% 29.82 in 8.0 mi SSW 15.0 mph 21.9 mph N/A   Clear
1:56 PM 93.0 °F 104.6 °F 75.0 °F 56% 29.73 in 10.0 mi SSW 25.3 mph 35.7 mph N/A   Clear
2:56 PM 93.0 °F 103.2 °F 73.9 °F 54% 29.71 in 10.0 mi SSW 26.5 mph 38.0 mph N/A   Clear
4:56 PM 90.0 °F 100.2 °F 75.0 °F 61% 29.67 in 10.0 mi SSW 24.2 mph 35.7 mph N/A   Clear
5:56 PM 89.1 °F 100.2 °F 75.9 °F 65% 29.65 in 9.0 mi SSW 27.6 mph 36.8 mph N/A   Clear
7:56 PM 84.9 °F 95.3 °F 77.0 °F 77% 29.66 in 7.0 mi SW 24.2 mph 34.5 mph N/A   Clear
8:51 PM 78.8 °F - 66.2 °F 65% 29.72 in 10.0 mi WNW 29.9 mph 42.6 mph N/A   Mostly Cloudy
8:56 PM 79.0 °F - 68.0 °F 69% 29.73 in 9.0 mi West 21.9 mph 41.4 mph 0.01 in Rain Light Rain
9:56 PM 75.9 °F - 68.0 °F 76% 29.69 in 10.0 mi SSW 9.2 mph - 0.02 in Rain Light Rain
10:56 PM 75.9 °F - 68.0 °F 76% 29.70 in 10.0 mi WSW 9.2 mph - N/A   Partly Cloudy
11:56 PM 72.0 °F - 69.1 °F 91% 29.79 in 2.0 mi WSW 27.6 mph 40.3 mph 0.14 in Rain Heavy Rain